When you browse on this site, cookies collect data to enhance your experience and personalize the content and advertising you see.
Visit our Privacy Policy to learn more. By continuing to use the site, you agree to this use of cookies and data.
  • In Romania
  • List of Countries
  • For 7 days
  • Water Temperature
  • Weather Map
  • Weather Widgets
  • user-avatar
    Login

    Hourly Weather Gurevskie Vyselki

    Today, 18 September, Wednesday

    Time Temperature Precipitation Wind Pressure Humidity
    00:00 +5°C° 0 mm 4 mps 730 mmHg 87%
    01:00 +5°C° 0 mm 4 mps 730 mmHg 89%
    02:00 +5°C° 0 mm 4 mps 730 mmHg 90%
    03:00 +4°C° 0 mm 4 mps 730 mmHg 91%
    04:00 +4°C° 0 mm 3 mps 730 mmHg 91%
    05:00 +4°C° 0 mm 3 mps 730 mmHg 91%
    06:00 +4°C° 0 mm 3 mps 730 mmHg 90%
    07:00 +5°C° 0 mm 3 mps 730 mmHg 85%
    08:00 +7°C° 0 mm 3 mps 729 mmHg 80%
    09:00 +9°C° 0 mm 3 mps 729 mmHg 75%
    10:00 +8°C° 0.7 mm 3 mps 729 mmHg 80%
    11:00 +8°C° 0.7 mm 3 mps 728 mmHg 85%
    12:00 +8°C° 0.7 mm 3 mps 728 mmHg 90%
    13:00 +8°C° 0.6 mm 2 mps 728 mmHg 88%
    14:00 +8°C° 0.6 mm 2 mps 727 mmHg 87%
    15:00 +10°C° 0.6 mm 1 mps 727 mmHg 86%
    16:00 +8°C° 0.1 mm 2 mps 727 mmHg 87%
    17:00 +8°C° 0.1 mm 2 mps 726 mmHg 88%
    18:00 +8°C° 0.1 mm 2 mps 726 mmHg 89%
    19:00 +8°C° 0.1 mm 3 mps 727 mmHg 90%
    20:00 +6°C° 0.1 mm 4 mps 727 mmHg 91%
    21:00 +6°C° 0.1 mm 4 mps 727 mmHg 92%
    22:00 +6°C° 0 mm 4 mps 728 mmHg 92%
    23:00 +5°C° 0 mm 4 mps 728 mmHg 92%

    Tomorrow, 19 September, Thursday

    Time Temperature Precipitation Wind Pressure Humidity
    00:00 +4°C° 0 mm 4 mps 729 mmHg 93%
    01:00 +4°C° 0 mm 4 mps 730 mmHg 93%
    02:00 +4°C° 0 mm 4 mps 730 mmHg 94%
    03:00 +4°C° 0 mm 4 mps 731 mmHg 95%
    04:00 +4°C° 0 mm 4 mps 732 mmHg 95%
    05:00 +3°C° 0 mm 4 mps 732 mmHg 96%
    06:00 +3°C° 0 mm 4 mps 733 mmHg 96%
    07:00 +3°C° 0 mm 5 mps 734 mmHg 96%
    08:00 +3°C° 0 mm 5 mps 734 mmHg 95%
    09:00 +5°C° 0 mm 5 mps 735 mmHg 94%
    10:00 +6°C° 0 mm 5 mps 736 mmHg 91%
    11:00 +6°C° 0 mm 4 mps 736 mmHg 89%
    12:00 +7°C° 0 mm 4 mps 737 mmHg 86%
    13:00 +7°C° 0.2 mm 4 mps 737 mmHg 82%
    14:00 +8°C° 0.2 mm 5 mps 737 mmHg 78%
    15:00 +9°C° 0.2 mm 5 mps 738 mmHg 73%
    16:00 +8°C° 0.2 mm 4 mps 738 mmHg 76%
    17:00 +7°C° 0.2 mm 4 mps 738 mmHg 79%
    18:00 +8°C° 0.2 mm 3 mps 738 mmHg 82%
    19:00 +7°C° 0 mm 3 mps 739 mmHg 85%
    20:00 +5°C° 0 mm 3 mps 739 mmHg 87%
    21:00 +4°C° 0 mm 3 mps 739 mmHg 90%
    22:00 +4°C° 0 mm 3 mps 740 mmHg 91%
    23:00 +5°C° 0 mm 2 mps 740 mmHg 91%

    Day after tomorrow, 20 September, Friday

    Time Temperature Precipitation Wind Pressure Humidity
    00:00 +5°C° 0 mm 2 mps 740 mmHg 92%
    01:00 +4°C° 0 mm 2 mps 740 mmHg 92%
    02:00 +4°C° 0 mm 2 mps 740 mmHg 93%
    03:00 +3°C° 0 mm 2 mps 740 mmHg 93%
    04:00 +3°C° 0 mm 2 mps 740 mmHg 93%
    05:00 +4°C° 0 mm 1 mps 740 mmHg 93%
    06:00 +3°C° 0 mm 1 mps 740 mmHg 93%
    07:00 +4°C° 0 mm 1 mps 740 mmHg 88%
    08:00 +5°C° 0 mm 1 mps 740 mmHg 84%
    09:00 +6°C° 0 mm 1 mps 740 mmHg 79%
    10:00 +7°C° 0 mm 1 mps 740 mmHg 72%
    11:00 +8°C° 0 mm 1 mps 740 mmHg 66%
    12:00 +9°C° 0 mm 1 mps 740 mmHg 59%
    13:00 +9°C° 0 mm 1 mps 740 mmHg 56%
    14:00 +9°C° 0 mm 1 mps 740 mmHg 54%
    15:00 +10°C° 0 mm 1 mps 740 mmHg 52%
    16:00 +9°C° 0 mm 1 mps 740 mmHg 56%
    17:00 +8°C° 0 mm 1 mps 740 mmHg 60%
    18:00 +7°C° 0 mm 2 mps 740 mmHg 64%
    19:00 +7°C° 0 mm 1 mps 740 mmHg 65%
    20:00 +6°C° 0 mm 1 mps 741 mmHg 66%
    21:00 +6°C° 0 mm 1 mps 741 mmHg 67%
    22:00 +6°C° 0 mm 1 mps 741 mmHg 68%
    23:00 +5°C° 0 mm 1 mps 741 mmHg 69%

    21 September, Saturday

    Time Temperature Precipitation Wind Pressure Humidity
    00:00 +5°C° 0 mm 1 mps 741 mmHg 71%
    01:00 +5°C° 0 mm 1 mps 742 mmHg 74%
    02:00 +3°C° 0 mm 2 mps 742 mmHg 78%
    03:00 +3°C° 0 mm 2 mps 742 mmHg 82%
    04:00 +3°C° 0 mm 2 mps 742 mmHg 83%
    05:00 +3°C° 0 mm 2 mps 742 mmHg 83%
    06:00 +3°C° 0 mm 2 mps 742 mmHg 84%
    07:00 +2°C° 0 mm 3 mps 743 mmHg 81%
    08:00 +3°C° 0 mm 3 mps 743 mmHg 78%
    09:00 +4°C° 0 mm 3 mps 743 mmHg 75%
    10:00 +5°C° 0 mm 3 mps 744 mmHg 68%
    11:00 +7°C° 0 mm 3 mps 744 mmHg 62%
    12:00 +9°C° 0 mm 3 mps 744 mmHg 55%
    13:00 +9°C° 0 mm 3 mps 744 mmHg 54%
    14:00 +9°C° 0 mm 3 mps 743 mmHg 53%
    15:00 +9°C° 0 mm 3 mps 743 mmHg 52%
    16:00 +8°C° 0 mm 2 mps 743 mmHg 56%
    17:00 +7°C° 0 mm 2 mps 743 mmHg 61%
    18:00 +6°C° 0 mm 2 mps 743 mmHg 66%
    19:00 +6°C° 0 mm 2 mps 743 mmHg 70%
    20:00 +5°C° 0 mm 2 mps 743 mmHg 74%
    21:00 +3°C° 0 mm 3 mps 743 mmHg 78%
    22:00 +3°C° 0 mm 3 mps 742 mmHg 78%
    23:00 +3°C° 0 mm 4 mps 742 mmHg 78%

    22 September, Sunday

    Time Temperature Precipitation Wind Pressure Humidity
    00:00 +3°C° 0 mm 4 mps 741 mmHg 78%
    01:00 +2°C° 0.1 mm 5 mps 740 mmHg 80%
    02:00 +2°C° 0.1 mm 6 mps 739 mmHg 83%
    03:00 +2°C° 0.1 mm 7 mps 738 mmHg 85%
    04:00 +3°C° 0.5 mm 7 mps 737 mmHg 87%
    05:00 +2°C° 0.5 mm 8 mps 736 mmHg 90%
    06:00 +2°C° 0.5 mm 8 mps 735 mmHg 92%
    07:00 +5°C° 0.8 mm 8 mps 734 mmHg 92%
    08:00 +6°C° 0.8 mm 8 mps 733 mmHg 91%
    09:00 +7°C° 0.8 mm 8 mps 732 mmHg 91%
    10:00 +8°C° 0.3 mm 9 mps 732 mmHg 84%
    11:00 +10°C° 0.3 mm 9 mps 732 mmHg 77%
    12:00 +9°C° 0.3 mm 10 mps 732 mmHg 71%
    13:00 +9°C° 0 mm 10 mps 733 mmHg 62%
    14:00 +8°C° 0 mm 10 mps 733 mmHg 53%
    15:00 +8°C° 0 mm 11 mps 734 mmHg 44%
    16:00 +7°C° 0 mm 10 mps 734 mmHg 47%
    17:00 +6°C° 0 mm 9 mps 735 mmHg 51%
    18:00 +5°C° 0 mm 8 mps 735 mmHg 54%
    19:00 +4°C° 0 mm 8 mps 736 mmHg 55%
    20:00 +4°C° 0 mm 8 mps 736 mmHg 57%
    21:00 +2°C° 0 mm 8 mps 736 mmHg 58%
    22:00 +2°C° 0 mm 8 mps 737 mmHg 61%
    23:00 +1°C° 0 mm 8 mps 737 mmHg 64%

    23 September, Monday

    Time Temperature Precipitation Wind Pressure Humidity
    00:00 0°C° 0 mm 7 mps 738 mmHg 68%
    01:00 0°C° 0 mm 7 mps 738 mmHg 70%
    02:00 0°C° 0 mm 7 mps 739 mmHg 73%
    03:00 -1°C° 0 mm 6 mps 739 mmHg 76%
    04:00 -1°C° 0 mm 6 mps 740 mmHg 79%
    05:00 -1°C° 0 mm 6 mps 740 mmHg 81%
    06:00 -1°C° 0 mm 5 mps 740 mmHg 83%
    07:00 0°C° 0 mm 5 mps 741 mmHg 80%
    08:00 +1°C° 0 mm 5 mps 741 mmHg 77%
    09:00 +2°C° 0 mm 5 mps 741 mmHg 74%
    10:00 +4°C° 0 mm 4 mps 742 mmHg 69%
    11:00 +5°C° 0 mm 4 mps 742 mmHg 65%
    12:00 +7°C° 0 mm 3 mps 742 mmHg 60%
    13:00 +8°C° 0 mm 3 mps 742 mmHg 58%
    14:00 +8°C° 0 mm 3 mps 741 mmHg 56%
    15:00 +8°C° 0 mm 2 mps 741 mmHg 54%
    16:00 +8°C° 0 mm 2 mps 741 mmHg 57%
    17:00 +7°C° 0 mm 2 mps 741 mmHg 60%
    18:00 +7°C° 0 mm 1 mps 741 mmHg 63%
    19:00 +7°C° 0.4 mm 1 mps 741 mmHg 72%
    20:00 +5°C° 0.4 mm 2 mps 741 mmHg 80%
    21:00 +4°C° 0.4 mm 2 mps 741 mmHg 88%
    22:00 +4°C° 0.4 mm 2 mps 741 mmHg 91%
    23:00 +4°C° 0.4 mm 1 mps 740 mmHg 93%
    Show more